This demonstration page uses our WeatherBlox Daily Observations layout. Learn more.

Left ArrowRight Arrow

39.51506, -84.39828

Hourly Observations for July 3, 2021

Temp ( °F °C ) Dew Point ( °F °C ) Humidity (%) Winds ( mph kmh ) Pressure ( in mb ) Visibility ( mi km ) Precip ( " mm )
12:15 am 00:15 Clear 62 16.5 58 14.2 86 86 NE 3 6 29.99 1016 10 16 N/A
12:35 am 00:35 Clear 61 16 57 14 88 88 NE 5 7 29.99 1016 10 16 N/A
12:55 am 00:55 Clear 62 16.6 57 14 85 85 NNE 6 9 29.99 1016 10 16 N/A
1:15 am 01:15 Clear 62 16.6 58 14.5 88 88 NNE 5 7 30.00 1016 10 16 N/A
1:35 am 01:35 Clear 61 16 57 14 88 88 NNE 5 7 30.00 1016 10 16 N/A
1:55 am 01:55 Clear 61 16 57 14 88 88 NNE 6 9 30.00 1016 10 16 N/A
2:15 am 02:15 Clear 60 15.6 57 13.9 90 90 N 5 7 30.01 1016 10 16 N/A
2:35 am 02:35 Clear 61 16.1 57 13.9 87 87 N 7 11 30.00 1016 10 16 N/A
2:55 am 02:55 Clear 61 16.2 57 14 87 87 N 6 9 30.00 1016 10 16 N/A
3:15 am 03:15 Clear 61 15.9 57 14.1 89 89 NE 6 9 30.00 1016 10 16 N/A
3:35 am 03:35 Clear 60 15.5 58 14.2 92 92 NNE 7 11 30.01 1016 10 16 N/A
3:55 am 03:55 Clear 60 15.4 58 14.3 93 93 N 3 6 30.01 1016 10 16 N/A
4:15 am 04:15 Clear 59 15 57 14.1 94 94 N 6 9 30.02 1016 10 16 N/A
4:35 am 04:35 Clear 59 15 57 14.1 94 94 NNE 6 9 30.02 1016 10 16 N/A
4:55 am 04:55 Clear 59 15.1 58 14.2 94 94 N 3 6 30.02 1016 10 16 N/A
5:15 am 05:15 Clear 58 14.6 57 14 96 96 NE 5 7 30.02 1017 10 16 N/A
5:35 am 05:35 Clear 58 14.5 57 14.1 97 97 NNE 3 6 30.02 1017 10 16 N/A
5:55 am 05:55 Clear 58 14.4 57 13.9 97 97 NE 5 7 30.02 1017 10 16 N/A
6:15 am 06:15 Clear 58 14.3 57 14 98 98 NNE 5 7 30.03 1017 10 16 N/A
6:35 am 06:35 Sunny 58 14.4 57 14.1 98 98 N N/A 30.04 1017 10 16 N/A
6:55 am 06:55 Sunny 58 14.3 57 13.9 97 97 N N/A 30.04 1017 10 16 N/A
7:15 am 07:15 Sunny 59 14.8 58 14.3 97 97 N N/A 30.04 1017 10 16 N/A
7:35 am 07:35 Sunny 60 15.4 58 14.5 94 94 N 3 6 30.04 1017 10 16 N/A
7:55 am 07:55 Sunny 60 15.8 58 14.6 93 93 N N/A 30.04 1017 10 16 N/A
8:15 am 08:15 Sunny 62 16.5 59 14.8 90 90 N 3 6 30.04 1017 10 16 N/A
8:35 am 08:35 Sunny 63 17.4 59 15.1 86 86 N 6 9 30.04 1017 10 16 N/A
8:55 am 08:55 Sunny 65 18.2 60 15.4 84 84 N 3 6 30.04 1017 10 16 N/A
9:15 am 09:15 Sunny 66 18.9 60 15.4 80 80 NNW 3 6 30.05 1018 10 16 N/A
9:35 am 09:35 Sunny 67 19.3 60 15.5 79 79 N N/A 30.05 1017 10 16 N/A
9:55 am 09:55 Sunny 69 20.4 60 15.5 74 74 NNW 5 7 30.04 1017 10 16 N/A
10:15 am 10:15 Sunny 70 21.2 61 16 72 72 N N/A 30.03 1017 10 16 N/A
10:35 am 10:35 Sunny 71 21.9 61 15.9 69 69 N N/A 30.02 1017 10 16 N/A
10:55 am 10:55 Sunny 73 22.5 57 13.9 58 58 NW 5 7 30.02 1017 10 16 N/A
11:15 am 11:15 Partly Cloudy 74 23.1 58 14.2 57 57 NW 7 11 30.02 1017 10 16 N/A
11:35 am 11:35 Partly Cloudy 74 23.5 56 13.4 53 53 WNW 6 9 30.02 1016 10 16 N/A
11:55 am 11:55 Partly Cloudy 75 23.7 56 13.6 53 53 NW 8 13 30.02 1016 10 16 N/A
12:15 pm 12:15 Partly Cloudy 76 24.3 58 14.6 55 55 WNW 9 15 30.00 1016 10 16 N/A
12:35 pm 12:35 Partly Cloudy 76 24.3 57 13.9 52 52 WNW 9 15 30.00 1016 10 16 N/A
12:55 pm 12:55 Partly Cloudy 76 24.3 57 13.8 52 52 W 10 17 29.99 1016 10 16 N/A
1:15 pm 13:15 Partly Cloudy 77 24.9 58 14.2 51 51 W 7 11 29.98 1015 10 16 N/A
1:35 pm 13:35 Sunny 76 24.7 56 13.5 50 50 NW 13 20 29.98 1015 10 16 N/A
1:55 pm 13:55 Partly Cloudy 77 25 57 13.7 50 50 NW 10 17 29.98 1015 10 16 N/A
2:15 pm 14:15 Sunny 77 25.2 58 14.5 52 52 NW 7 11 29.97 1015 7 11 N/A
2:35 pm 14:35 Sunny 78 25.4 58 14.7 52 52 W 10 17 29.96 1015 10 16 N/A
2:55 pm 14:55 Partly Cloudy 78 25.7 59 15 52 52 W 10 17 29.96 1015 10 16 N/A
3:15 pm 15:15 Sunny 78 25.4 57 14.1 50 50 NW 9 15 29.96 1015 10 16 N/A
3:35 pm 15:35 Sunny 78 25.5 57 14 49 49 WNW 7 11 29.96 1015 10 16 N/A
3:55 pm 15:55 Sunny 79 25.9 57 13.8 47 47 NW 10 17 29.95 1014 10 16 N/A
4:15 pm 16:15 Sunny 79 25.9 57 13.7 47 47 WNW 10 17 29.94 1014 10 16 N/A
4:35 pm 16:35 Sunny 79 26 58 14.3 49 49 WSW 10 17 29.94 1014 10 16 N/A
4:55 pm 16:55 Sunny 78 25.8 57 14 48 48 WNW 8 13 29.93 1014 10 16 N/A
5:15 pm 17:15 Sunny 79 25.9 56 13.5 46 46 W 10 17 29.94 1014 10 16 N/A
5:35 pm 17:35 Sunny 78 25.8 55 12.9 45 45 W 9 15 29.94 1014 10 16 N/A
5:55 pm 17:55 Sunny 78 25.6 55 13 46 46 W 12 19 29.94 1014 10 16 N/A
6:15 pm 18:15 Sunny 78 25.4 56 13.4 47 47 W 7 11 29.93 1014 10 16 N/A
6:35 pm 18:35 Sunny 78 25.3 55 12.7 46 46 W 12 19 29.93 1014 10 16 N/A
6:55 pm 18:55 Sunny 77 24.9 55 12.8 47 47 WNW 9 15 29.93 1014 10 16 N/A
7:15 pm 19:15 Mostly Cloudy 75 24 53 11.5 46 46 W 9 15 29.94 1014 10 16 N/A
7:35 pm 19:35 Cloudy 75 23.7 53 11.7 47 47 W 7 11 29.94 1014 10 16 N/A
7:55 pm 19:55 Cloudy 74 23.5 54 12.3 50 50 WNW 6 9 29.94 1014 10 16 N/A
8:15 pm 20:15 Cloudy 73 22.9 55 12.5 52 52 WNW 5 7 29.95 1014 10 16 N/A
8:35 pm 20:35 Mostly Cloudy 72 22.1 55 12.7 55 55 W 5 7 29.95 1014 10 16 N/A
8:55 pm 20:55 Cloudy 71 21.9 58 14.7 64 64 W 3 6 29.95 1014 10 16 N/A
9:15 pm 21:15 Mostly Cloudy 71 21.5 60 15.3 68 68 W 3 6 29.95 1014 10 16 N/A
9:35 pm 21:35 Clear 68 20 62 16.8 82 82 N N/A 29.95 1014 10 16 N/A
9:55 pm 21:55 Partly Cloudy 66 18.9 60 15.4 80 80 W 3 6 29.96 1014 10 16 N/A
10:15 pm 22:15 Partly Cloudy 65 18.6 59 14.9 79 79 W 3 6 29.97 1015 10 16 N/A
10:35 pm 22:35 Partly Cloudy 63 17.4 60 15.8 90 90 N N/A 29.97 1015 10 16 N/A
10:55 pm 22:55 Clear 64 17.9 60 15.7 87 87 N N/A 29.97 1015 10 16 N/A
11:15 pm 23:15 Clear 63 17.4 59 15.2 87 87 W 3 6 29.97 1015 10 16 N/A
11:35 pm 23:35 Partly Cloudy with Mist and Fog 62 16.9 60 15.5 92 92 WSW 3 6 29.97 1015 7 11 N/A
11:55 pm 23:55 Clear with Mist and Fog 63 17.2 59 15.1 88 88 WSW 3 6 29.97 1015 7 11 N/A

Powered by AerisWeather